Overview Statistics Trail Chart Weather Telemetry Raw packets
 

This is the latest recevied weather packets stored in our database for station/object DL2GFH-3. If no packets are shown the sender has not sent any weather packets the latest 10 day(s).

<< 13 14 15 16 17 18 19 >>
Time Temp. Humidity Pressure Rain* Wind** Luminosity Snow
1777410891 20° C 29% 1017.1 hPa - - - -
1777409986 20° C 29% 1016.9 hPa - - - -
1777409080 20.56° C 29% 1016.8 hPa - - - -
1777408175 20.56° C 28% 1016.8 hPa - - - -
1777407270 21.11° C 28% 1016.8 hPa - - - -
1777406364 21.67° C 27% 1016.7 hPa - - - -
1777405459 21.11° C 28% 1016.6 hPa - - - -
1777404553 21.11° C 28% 1016.5 hPa - - - -
1777403648 21.67° C 27% 1016.3 hPa - - - -
1777402743 22.22° C 26% 1016.1 hPa - - - -
1777401837 22.78° C 25% 1016.1 hPa - - - -
1777400932 21.67° C 27% 1016.1 hPa - - - -
1777400026 21.11° C 28% 1016 hPa - - - -
1777397310 21.67° C 27% 1015.9 hPa - - - -
1777396405 22.22° C 27% 1015.8 hPa - - - -
1777395499 22.22° C 26% 1015.8 hPa - - - -
1777394594 22.78° C 26% 1015.8 hPa - - - -
1777393688 22.78° C 25% 1015.7 hPa - - - -
1777392783 22.78° C 25% 1015.6 hPa - - - -
1777391878 23.33° C 25% 1015.6 hPa - - - -
1777390972 23.33° C 24% 1015.4 hPa - - - -
1777390067 23.89° C 24% 1015.3 hPa - - - -
1777389161 23.89° C 24% 1015.2 hPa - - - -
1777388256 23.89° C 23% 1015.4 hPa - - - -
1777387350 24.44° C 23% 1015.4 hPa - - - -

* Rain since midnight (hover to see other rain measurements)
** Current wind speed in m/s (hover to see current wind gust speed)